Weather in Lipovka

Russia / Saratov Oblast     52°26′06″N   46°11′32″E
temp.,
°C
wind,
m/s
gust,
m/s
humid.,
%
clouds,
%
prec.,
mm/h
press.,
hPa
HPBL,
m
13 april, tue
tue1301:00+10ese467461 0.0 103273
04:00+8ese357599 0.0 103258
07:00+7ese377536 0.0 103392
10:00+12ese58537 0.0 1033342
13:00+16ese57361 0.0 1032808
16:00+18se67315 0.0 10301145
19:00+15ese484722 0.0 1029142
22:00+11ese4105820 0.0 1030159
14 april, wed
wed1401:00+8ese485850 0.0 1030107
04:00+7e35645 0.0 102953
07:00+6e49701 0.0 1028134
10:00+12ese610570 0.0 1027415
13:00+16ese79420 0.0 10251029
16:00+17se79365 0.0 10231430
19:00+15se48495 0.0 1022179
22:00+11ese48671 0.0 1023130
15 april, thu
thu1501:00+9ese48743 0.0 1021113
04:00+8ese35785 0.0 102166
07:00+8ese3677100 0.0 102084
10:00+13ese595884 0.0 1019335
13:00+18se674450 0.0 1018756
16:00+20sse563855 0.0 10171323
19:00+17ese334699 0.0 101734
22:00+13ese335365 0.0 101727
16 april, fri
fri1601:00+11se335841 0.0 101735
04:00+10se2258100 0.0 101711
07:00+10ese3358100 0.0 101721
10:00+15ese464679 0.0 1017313
13:00+18se453382 0.0 10181524
16:00+19ese453016 0.0 10172181
19:00+17ese344291 0.0 101883
22:00+14e3547100 0.0 101961
17 april, sat
sat1701:00+11ene51277100 0.0 1019245
04:00+9ene51189100 0.0 1021261
07:00+8e61290100 0.0 1021305
10:00+11e7969100 0.0 1022530
13:00+14e6756100 0.0 1022913
16:00+15e6747100 0.0 10221262
19:00+12ene694781 0.0 1022616
22:00+9ene612506 0.0 1023373